COSMOS 2547 [GLONASS-K] (46805 NORAD) Tracking and Keplerian Element Data

This shows tracking and keplerian element data for the satellite.

Feedback or suggestion? Click here.




ElementValue
Catalog46805
NameCOSMOS 2547 [GLONASS-K]
Epoch Orbit59
Epoch Day327.78426668
Epoch Year2020
RAAN260.8246
Inclination64.7973
Eccentricity0.0007626
Argument of Perigee232.4858
Mean Anonmoly309.6037
Mean Motion2.13146552
Decay Rate-3.7E-07
L11 46805U 20075A 20327.78426668 -.00000037 00000-0 00000+0 0 9998
L22 46805 64.7973 260.8246 0007626 232.4858 309.6037 2.13146552 593

Live tracking and technical data element details for COSMOS 2547 [GLONASS-K] (NORAD 46805). COSMOS 2547 [GLONASS-K] can be tracked NOW for your location showing map with azimuth and elevation plus other details from your city location.

Track the satellite on the map from your city or location and see movement details for azimuth, elevation, latitude, longitude, range, height, and movement on the map or in text.







IsCatalogInMostPopularTable: catalog: 46805, numindb: 9
Update: records affected: 1



GetName: 46805 COSMOS 2547 [GLONASS-K]

Hit Count: updated at: Tue, 24 Nov 2020 12:09:23 GMT